map of ADB home
ADB - Airport
Location
City:  Izmir, Izmir, Turkey
Name:Adnan Menderes
Old (Alt.):Cumaovasi
ICAO:LTBJ
IATA:ADB

Details
Type:Airport (Aerodrome, Airfield)
Use:Public/Civil
Latitude:3817'33"N (38.292392)
Longitude:2709'25"E (27.156953)
Datum:WGS 1984
Elevation:412 ft (126 m)
Variation:5.08E (WMM2015v2 magnetic declination)
0.11 annual change
Runways:2
Longest:10630 × 147 ft (3240 × 45 m), paved

Time
Time Zone:UTC+3
Local Time:

Weather
METAR:LTBJ 041350Z VRB02KT 9999 FEW030 SCT200 19/04 Q1018 NOSIG RMK RWY16 VRB02KT

Related Locations
Nearby:
Farthest:RVV: 11393 mi / 18335 km
Raivavae, Tubuai Islands, Austral Islands, PF

Find:

   beyond  
but within

Other Information
Maps:
NOTAMs:
Links:
Sources:

  
  • flag of Turkey
  

Sectional Chart

Flight Planning
at skyvector.com

Satellite Image

Google Maps Satellite view

 

Copyright © 2004-2019 Karl L. Swartz. All rights reserved.
The Great Circle Mapper name and logo are trademarks of the Great Circle Mapper.
All other trademarks mentioned herein belong to their respective owners.
Please see credits for attibutions and further copyright information.

  Follow gcmap on Facebook Follow gcmap on Twitter GCmap on LinkedIn

hCard Microformat

Geo Microformat